Wind_Speed
8 9 9 11 12 13 13 13 14 15 13 12 15 14 11 11 9 10 10 9 9 10 11 13 15 16 16 16 16 16 14 13 13 12 13 14 15 16 17 18 18 19 20 21
9 12 12 12 12 11 12 14 14 15 13 12 11 10 8 9 8 8 9 8 8 9 9 10 10 11 13 13 13 13 12 12 11 12 14 15 16 16 18 19 19 20 21 21
9 10 13 13 12 11 11 14 14 12 11 11 12 10 9 8 8 7 7 8 8 8 8 8 8 9 9 9 10 10 10 10 11 12 14 15 17 18 19 20 20 21 22 22
10 9 12 12 12 12 11 12 11 9 10 11 10 10 10 9 9 7 7 7 6 6 7 7 8 9 9 9 9 10 10 10 12 13 15 17 18 19 20 21 21 22 22 23
10 9 12 13 12 12 11 9 9 11 11 9 7 8 10 9 8 8 8 7 6 6 7 7 7 7 8 8 8 9 10 11 13 15 16 18 19 20 20 21 22 23 24 24
10 9 11 11 11 11 10 9 10 13 11 7 6 7 9 10 10 10 9 7 5 6 7 7 7 7 8 8 8 9 11 13 14 16 17 19 20 20 21 22 23 24 24 24
12 10 11 11 10 10 9 9 14 15 13 8 9 7 10 9 10 10 9 7 6 6 7 8 8 9 9 9 10 12 13 14 16 18 18 19 20 20 21 22 22 23 23 24
13 13 10 11 10 9 9 9 10 12 13 11 9 10 9 10 9 9 9 7 7 7 8 9 10 10 10 11 12 13 15 16 17 18 19 19 20 21 21 22 23 23 24 25
11 13 12 11 10 9 8 8 8 11 10 8 9 11 10 11 10 10 9 8 8 9 9 10 11 12 12 13 14 15 16 17 18 19 19 20 21 22 22 23 24 25 25 26
11 11 12 12 10 9 8 7 7 7 10 10 7 8 12 13 12 12 11 9 9 10 11 12 13 13 13 14 15 16 17 18 19 19 20 21 21 22 23 23 25 26 27 28
12 13 12 13 11 9 8 7 8 8 7 9 10 8 10 12 13 12 12 11 10 11 12 12 13 14 14 15 15 16 17 18 19 20 21 21 22 22 23 24 25 26 27 28
14 13 13 15 13 10 9 9 10 9 7 6 11 11 11 14 15 13 12 12 12 12 13 13 14 14 14 15 16 17 18 19 19 20 21 21 22 23 24 25 26 27 28 29
14 13 14 15 16 11 7 7 8 7 6 6 10 13 14 15 15 14 13 13 12 13 14 14 14 15 15 16 17 18 18 19 20 21 21 22 23 24 25 26 28 29 30 31
14 14 14 15 15 10 5 5 7 9 7 8 11 13 15 14 15 15 14 14 14 14 15 15 15 15 16 16 17 18 19 20 20 21 23 23 24 26 27 28 29 30 32 33
15 15 14 14 12 11 8 8 9 11 11 11 12 13 15 17 17 17 17 16 15 15 15 15 16 16 16 17 18 19 20 21 21 22 24 25 26 28 29 30 31 32 33 35
17 15 15 13 12 11 11 10 11 13 13 13 14 15 18 19 17 17 17 17 17 17 16 16 16 17 17 18 19 20 21 22 23 24 25 27 28 29 30 31 33 34 36 37
18 17 15 13 12 12 12 11 13 13 13 14 15 17 19 19 17 17 18 18 18 18 18 17 17 18 18 19 20 21 22 23 24 25 26 28 29 31 32 33 35 36 37 39
18 17 16 14 13 12 11 12 13 13 14 15 16 19 20 19 19 18 18 18 18 18 18 18 18 19 19 20 21 22 23 24 25 26 28 29 31 33 34 36 37 38 40 41
19 17 16 15 14 13 13 14 14 13 13 15 17 18 19 18 19 19 18 18 18 19 19 20 20 20 21 21 22 23 24 25 26 28 29 31 33 34 36 37 39 40 41 42
19 17 17 17 16 16 18 18 16 14 14 16 17 18 18 18 18 20 20 20 20 20 20 21 22 22 22 23 24 25 26 28 28 30 31 33 34 36 37 39 40 42 42 43
19 17 16 17 17 18 21 20 18 18 17 17 18 19 20 20 19 21 22 22 22 22 23 23 23 23 24 24 25 26 28 30 30 32 33 35 37 38 39 41 42 43 43 44
18 18 19 19 19 22 23 23 22 19 17 18 20 22 23 23 22 22 23 23 23 23 24 24 24 25 25 26 27 29 30 32 33 34 36 37 39 40 41 43 44 45 45 46
21 21 22 22 22 24 25 24 24 21 21 21 23 25 25 25 24 24 25 25 24 25 25 25 25 26 27 28 29 31 32 34 36 36 38 40 40 42 43 45 46 46 46 45
23 25 24 23 24 25 26 26 23 23 24 25 26 26 26 26 25 26 26 26 26 26 27 27 27 27 28 30 31 33 35 36 38 38 39 41 42 43 44 46 47 47 46 45
27 25 25 27 26 25 27 25 26 26 26 27 27 27 26 26 27 28 28 28 28 29 29 29 29 30 32 32 34 35 37 38 39 40 42 43 45 45 46 47 48 48 47 46
28 28 27 28 27 26 26 26 26 27 27 27 28 28 27 28 29 29 30 30 30 31 31 31 31 33 34 35 36 38 39 40 41 43 44 45 46 46 47 48 48 48 47 44
Wind_Direction
317 323 336 324 308 301 297 293 294 294 305 319 319 317 318 311 306 299 295 289 285 278 272 274 275 277 279 284 286 286 287 295 302 306 306 307 307 305 306 306 305 304 303 299
314 314 317 306 299 298 300 305 306 316 328 324 319 327 323 321 312 304 299 297 289 286 284 285 289 285 288 291 289 288 295 300 304 309 310 311 310 310 310 310 309 308 307 305
290 297 301 300 301 303 304 302 308 320 325 321 325 327 337 328 329 329 315 307 304 297 300 297 293 293 292 295 295 296 300 307 311 314 315 315 315 313 312 312 311 310 309 307
284 284 291 294 295 296 298 297 308 311 314 315 323 324 338 329 340 343 334 324 317 310 309 307 301 301 299 301 303 308 313 319 320 321 320 319 318 317 316 315 314 313 311 309
276 281 288 291 291 289 290 289 295 289 282 282 307 315 323 338 356 356 348 343 334 326 325 329 318 313 318 323 321 325 325 324 324 324 324 323 322 321 319 317 316 315 314 312
282 272 277 283 291 294 294 291 298 299 289 281 317 318 315 337 351 354 354 352 353 348 350 350 348 341 337 337 336 333 331 330 329 328 327 325 323 323 322 320 319 318 317 316
291 277 268 279 286 294 296 304 314 322 342 341 341 332 330 337 343 346 350 354 356 358 355 352 352 352 349 345 341 338 336 334 332 331 328 326 325 324 323 323 322 321 320 318
285 285 283 284 289 288 293 299 312 317 328 334 333 324 335 346 344 341 346 349 350 352 355 354 353 351 350 346 343 341 338 336 335 332 330 328 327 326 327 326 325 324 322 321
271 288 290 290 287 289 285 285 292 301 306 296 305 322 331 341 341 340 343 347 348 349 349 347 346 347 345 343 341 341 339 336 335 334 333 332 330 330 329 328 327 325 324 322
257 269 278 283 290 297 291 280 273 276 301 305 283 287 317 336 340 337 337 341 342 341 341 341 342 343 342 341 340 339 338 337 336 336 334 333 331 329 328 328 327 326 325 323
259 255 263 270 274 276 277 275 268 262 260 299 311 296 311 330 331 331 331 333 333 332 333 335 336 337 337 338 338 338 337 337 336 335 334 332 331 331 329 328 327 326 325 324
256 252 252 256 259 253 245 252 255 257 247 269 299 295 306 320 323 324 322 323 327 328 328 331 332 332 333 334 335 336 336 335 334 333 333 332 331 331 330 329 329 328 326 324
253 251 251 258 258 253 242 240 257 260 247 254 281 289 300 311 316 317 316 317 319 322 323 325 327 329 329 329 331 333 333 333 332 332 332 331 331 331 331 330 330 328 327 325
260 256 253 261 274 279 287 254 255 260 259 262 269 282 291 301 305 309 311 311 313 316 317 319 322 324 325 325 327 328 328 329 329 329 330 330 331 331 330 330 329 328 326 325
257 256 254 255 267 288 287 266 265 264 265 267 271 278 286 289 296 302 305 307 309 311 312 314 316 319 320 322 323 324 325 326 326 327 328 328 329 329 328 328 328 327 327 326
255 256 254 255 262 262 266 264 262 261 263 265 270 273 275 280 290 295 299 301 305 307 310 311 313 316 318 319 320 321 322 322 323 325 325 326 327 328 327 327 327 326 326 326
258 258 255 251 250 254 257 255 258 262 260 260 261 263 270 278 284 287 292 296 301 304 307 310 313 314 315 317 318 319 319 320 322 323 323 324 325 326 327 327 326 326 326 326
262 261 259 254 246 249 251 254 258 259 260 257 259 264 270 277 284 286 289 293 297 301 304 306 310 313 314 315 317 317 318 318 319 320 321 322 323 323 325 326 326 326 326 326
258 259 255 250 248 249 249 249 252 258 256 256 260 265 271 278 284 286 290 295 299 299 300 304 309 311 312 313 315 315 317 317 317 318 320 321 322 322 324 325 325 326 327 327
255 254 254 251 249 250 254 251 251 251 255 262 267 270 274 278 283 288 294 298 301 301 301 303 306 308 310 311 314 316 316 317 316 317 319 321 322 324 324 325 325 326 326 326
255 252 253 253 252 251 253 254 254 248 251 263 267 274 278 279 284 289 294 298 299 300 301 301 303 305 307 309 311 313 315 316 316 316 317 319 320 322 324 325 325 325 325 325
258 260 256 252 250 249 252 254 255 253 259 266 271 275 278 280 285 288 291 294 297 297 298 299 300 302 303 305 308 311 314 315 315 316 317 318 319 320 322 324 324 324 324 324
255 254 257 256 255 258 253 252 256 259 265 271 273 274 277 280 284 287 289 291 294 296 297 298 300 301 302 304 306 309 311 313 315 315 316 317 318 319 320 322 323 324 324 324
254 256 256 258 258 260 260 262 266 269 273 275 275 274 277 280 281 284 288 290 291 293 295 297 299 300 302 303 304 307 309 311 313 314 315 316 317 318 319 320 321 322 322 323
255 260 259 261 263 265 265 265 268 269 270 271 273 275 277 279 281 284 286 287 289 291 293 294 296 298 301 302 303 305 308 310 311 313 314 315 317 318 319 319 319 320 321 322
256 259 261 263 266 268 268 269 269 271 269 268 270 273 274 277 280 283 284 285 287 290 292 293 294 297 299 301 302 304 306 307 310 313 313 314 315 317 318 319 319 320 321 321
Height
5879 5879 5878 5878 5878 5877 5875 5874 5871 5867 5866 5863 5861 5858 5855 5852 5851 5851 5849 5850 5850 5850 5850 5850 5850 5851 5852 5852 5852 5853 5852 5851 5851 5850 5849 5848 5847 5847 5846 5845 5843 5842 5841 5840
5878 5878 5878 5877 5876 5875 5873 5871 5869 5866 5864 5862 5861 5858 5855 5852 5850 5850 5849 5849 5849 5849 5848 5849 5849 5848 5849 5850 5850 5850 5850 5849 5848 5848 5847 5846 5844 5843 5842 5841 5840 5838 5836 5835
5877 5879 5877 5876 5874 5873 5872 5870 5868 5866 5864 5862 5860 5858 5855 5852 5850 5849 5849 5849 5848 5848 5848 5848 5848 5847 5848 5848 5848 5848 5848 5847 5846 5845 5844 5843 5841 5840 5839 5837 5835 5834 5832 5830
5875 5876 5875 5874 5873 5871 5870 5868 5866 5864 5862 5860 5859 5857 5855 5852 5851 5850 5849 5848 5848 5847 5847 5846 5846 5846 5846 5847 5847 5846 5845 5844 5844 5843 5841 5840 5838 5836 5835 5833 5831 5829 5827 5825
5873 5873 5873 5872 5871 5869 5868 5866 5864 5861 5858 5856 5855 5855 5853 5852 5851 5850 5849 5848 5847 5847 5846 5845 5844 5845 5845 5844 5844 5844 5843 5842 5841 5840 5838 5836 5835 5833 5831 5829 5826 5824 5822 5820
5870 5870 5870 5869 5868 5867 5866 5865 5863 5859 5853 5853 5854 5854 5853 5851 5851 5850 5849 5848 5847 5846 5845 5844 5843 5843 5843 5843 5843 5842 5841 5840 5839 5837 5835 5833 5831 5829 5827 5825 5822 5820 5817 5815
5867 5866 5866 5866 5865 5866 5864 5863 5861 5857 5853 5853 5854 5853 5854 5851 5850 5849 5849 5848 5847 5846 5846 5845 5844 5843 5842 5842 5841 5840 5839 5837 5836 5834 5832 5830 5828 5826 5824 5821 5818 5816 5813 5810
5865 5863 5863 5863 5863 5863 5862 5862 5861 5859 5856 5855 5854 5853 5852 5851 5851 5850 5849 5848 5847 5846 5845 5844 5843 5842 5841 5840 5839 5838 5836 5835 5833 5831 5829 5827 5825 5823 5820 5817 5815 5812 5809 5806
5864 5863 5862 5861 5861 5861 5861 5860 5860 5859 5856 5855 5853 5852 5852 5851 5851 5850 5849 5847 5846 5846 5845 5844 5843 5841 5840 5839 5837 5836 5834 5833 5831 5829 5827 5825 5822 5819 5816 5813 5810 5807 5804 5801
5862 5861 5861 5860 5859 5859 5859 5859 5859 5858 5856 5854 5853 5851 5851 5851 5850 5849 5848 5847 5846 5845 5844 5843 5841 5840 5838 5837 5835 5834 5832 5831 5828 5826 5824 5822 5819 5816 5813 5810 5807 5803 5800 5796
5859 5859 5859 5858 5857 5857 5857 5857 5856 5856 5855 5854 5851 5852 5850 5851 5849 5849 5847 5846 5845 5844 5843 5842 5840 5839 5837 5836 5834 5832 5831 5829 5826 5824 5822 5819 5816 5813 5810 5807 5803 5800 5796 5791
5854 5856 5855 5854 5853 5852 5853 5854 5854 5855 5854 5854 5852 5853 5849 5849 5848 5847 5846 5845 5844 5843 5842 5840 5839 5837 5836 5834 5832 5831 5829 5826 5824 5822 5819 5816 5813 5810 5807 5803 5799 5795 5791 5787
5851 5852 5852 5851 5850 5849 5849 5851 5852 5852 5853 5853 5851 5852 5848 5847 5847 5846 5845 5844 5843 5842 5840 5839 5837 5836 5834 5832 5830 5828 5826 5824 5822 5819 5816 5813 5810 5806 5803 5799 5794 5790 5786 5781
5847 5848 5849 5848 5844 5845 5846 5848 5850 5851 5851 5851 5850 5848 5847 5846 5845 5844 5844 5842 5841 5840 5839 5837 5835 5834 5832 5830 5828 5826 5824 5821 5819 5816 5813 5810 5806 5802 5798 5794 5789 5785 5780 5775
5843 5844 5844 5844 5844 5843 5844 5846 5848 5849 5849 5849 5848 5846 5844 5844 5843 5842 5841 5840 5839 5838 5836 5835 5833 5831 5830 5828 5826 5823 5821 5818 5816 5813 5809 5806 5802 5798 5793 5789 5784 5779 5774 5768
5838 5840 5840 5841 5842 5842 5843 5844 5846 5846 5846 5846 5846 5845 5842 5841 5841 5840 5839 5838 5836 5835 5833 5832 5830 5829 5827 5825 5823 5820 5818 5815 5812 5809 5805 5801 5797 5793 5788 5784 5778 5773 5767 5761
5834 5835 5837 5837 5838 5838 5840 5841 5842 5842 5842 5843 5842 5841 5839 5838 5838 5837 5836 5835 5833 5832 5830 5829 5827 5826 5824 5821 5819 5817 5814 5811 5808 5804 5800 5796 5792 5787 5783 5777 5772 5766 5760 5754
5829 5831 5832 5833 5835 5835 5838 5837 5838 5838 5838 5838 5837 5836 5836 5835 5834 5833 5833 5832 5830 5828 5827 5825 5823 5822 5820 5818 5815 5812 5809 5806 5803 5799 5795 5791 5787 5782 5777 5771 5765 5759 5753 5746
5825 5826 5828 5829 5829 5831 5832 5831 5832 5832 5833 5833 5833 5832 5831 5831 5830 5829 5828 5827 5826 5825 5822 5821 5819 5817 5815 5813 5811 5808 5804 5801 5798 5794 5790 5786 5781 5776 5770 5764 5758 5752 5745 5739
5820 5822 5824 5824 5825 5826 5826 5825 5826 5828 5827 5827 5827 5827 5827 5827 5826 5825 5823 5822 5821 5820 5818 5816 5815 5813 5811 5808 5805 5802 5799 5796 5792 5788 5784 5779 5774 5769 5763 5757 5751 5744 5737 5730
5814 5815 5819 5820 5820 5820 5820 5821 5822 5823 5823 5822 5822 5822 5822 5822 5821 5820 5818 5817 5816 5815 5813 5811 5809 5807 5805 5802 5800 5797 5793 5790 5786 5782 5777 5772 5767 5762 5756 5750 5743 5736 5729 5722
5809 5811 5812 5814 5815 5817 5814 5815 5816 5814 5815 5817 5817 5817 5816 5816 5815 5815 5813 5812 5811 5809 5807 5805 5804 5801 5799 5796 5793 5790 5787 5783 5779 5774 5770 5765 5760 5754 5748 5742 5735 5728 5721 5714
5804 5806 5806 5807 5809 5808 5807 5806 5808 5808 5810 5811 5812 5812 5811 5810 5810 5809 5807 5806 5805 5803 5801 5799 5797 5795 5792 5790 5786 5783 5780 5776 5771 5767 5762 5757 5751 5746 5739 5733 5726 5719 5712 5705
5799 5799 5800 5800 5800 5801 5800 5800 5801 5804 5806 5806 5805 5805 5805 5803 5803 5802 5801 5799 5798 5796 5794 5792 5790 5788 5785 5782 5779 5776 5772 5768 5763 5759 5754 5749 5743 5737 5731 5724 5718 5710 5703 5696
5793 5793 5794 5795 5794 5794 5795 5796 5797 5798 5799 5799 5798 5798 5798 5797 5796 5795 5794 5793 5791 5789 5787 5785 5782 5780 5777 5774 5771 5767 5763 5759 5755 5750 5745 5740 5734 5728 5722 5716 5709 5702 5695 5687
5788 5788 5788 5788 5789 5790 5789 5789 5790 5790 5791 5791 5791 5791 5790 5790 5789 5787 5786 5785 5783 5781 5779 5777 5774 5771 5769 5765 5762 5758 5754 5750 5746 5741 5736 5730 5724 5718 5712 5706 5700 5693 5686 5680